[[{"header":{"parameterUnit":"m.s-1","parameterCategory":1,"la1":30.2991,"la2":30.254,"lo1":-89.0895,"lo2":-89.0444,"dy":0.0017,"dx":0.0017,"nx":28,"ny":28,"refTime":"2024-04-12T09:00:00:Z","depth":0,"parameterNumber":2,"parameterNumberName":"U-component_of_WINDS"},"data":[0,0,0,0,0,0,0,0,0,0,0,0,0,0,0,0,0,0,0,0,0,0,0,0,0,0,0,0,0,0,0,0,0,0,0,0,0,0,0,0,0,0,0,0,0,0,0,0,0,0,0,0,0,0,0,0,0,0,1.6502,1.6502,0,1.6499,1.6499,1.6499,1.6459,1.6458,1.6457,1.6456,1.6452,1.6453,1.6454,0,0,0,0,0,0,0,0,0,0,0,0,0,1.6474,1.6475,1.6502,1.6502,1.6502,1.6499,1.6499,1.6499,1.6459,1.6457,1.6456,1.6455,1.6452,1.6453,1.6454,0,0,0,0,0,0,0,0,0,0,0,0,0,1.648,1.6475,1.6502,1.6482,1.648,1.6499,1.6499,1.6499,1.6459,1.6457,1.6456,1.6455,1.6452,1.6453,1.6454,1.6492,0,0,1.6458,1.6459,0,0,0,0,0,0,0,0,1.648,1.6481,1.6485,1.6483,1.6481,1.6478,1.6488,1.6497,1.6459,1.6467,1.6456,1.6454,1.6462,1.6462,1.6465,1.6492,1.6492,1.6458,1.6459,1.6459,1.646,0,0,0,0,0,0,0,1.6479,1.6481,1.6501,1.6485,1.6483,1.6473,1.6472,1.6489,1.6473,1.6466,1.6463,1.6463,1.6461,1.6464,1.6465,1.6492,1.6458,1.6459,1.646,1.6461,1.6552,1.6553,0,0,0,0,0,0,1.6482,1.6481,1.6501,1.6501,1.6477,1.6475,1.6474,1.648,1.6473,1.647,1.6465,1.6462,1.6462,1.6463,1.6464,1.6509,1.6459,1.6461,1.6461,1.655,1.6552,1.6554,0,0,0,0,0,0,1.6481,1.6484,1.6501,1.649,1.6492,1.6477,1.6484,1.6481,1.6484,1.6472,1.6468,1.6471,1.6461,1.6462,1.6486,1.6509,1.6461,1.6462,1.6548,1.6551,1.6553,1.66,0,0,0,0,0,0,1.6481,1.6484,1.6498,1.6491,1.6492,1.6523,1.6486,1.6482,1.6486,1.6482,1.6477,1.6474,1.646,1.6484,1.6487,1.651,1.6463,1.6546,1.6549,1.6552,1.6596,1.6604,1.661,0,0,0,0,0,1.648,1.6511,1.6499,1.6502,1.651,1.6524,1.6525,1.6508,1.6488,1.6503,1.6495,1.6474,1.6506,1.6487,1.649,1.6513,1.6545,1.6548,1.6552,1.6593,1.6602,1.661,0,0,0,0,0,0,1.6522,1.651,1.6496,1.6526,1.6527,1.6517,1.6535,1.6518,1.6524,1.652,1.6499,1.6498,1.6525,1.6521,1.65,1.655,1.6522,1.6526,1.6552,1.656,1.6567,1.6568,1.6464,0,0,0,0,0,1.6535,1.6547,1.6536,1.6564,1.6565,1.655,1.6556,1.6543,1.6542,1.6542,1.6536,1.6536,1.6546,1.6553,1.6561,1.6595,1.6594,1.6613,1.662,1.6625,1.663,1.6648,1.6657,1.6566,1.6566,1.6566,0,0,1.6561,1.6556,1.6566,1.6572,1.6571,1.6585,1.655,1.6566,1.6576,1.6544,1.6566,1.6562,1.6561,1.659,1.6603,1.6588,1.6654,1.663,1.6635,1.6636,1.6653,1.6662,1.6669,1.6569,1.6568,1.6568,0,0,1.6617,1.6614,1.6637,1.6637,1.6635,1.6625,1.6631,1.6624,1.662,1.6642,1.6619,1.663,1.6648,1.6648,1.6651,1.6707,1.6689,1.6711,1.6747,1.6765,1.6772,1.6779,1.68,1.6807,1.6715,1.6715,1.6715,0,1.665,1.667,1.6651,1.6669,1.6673,1.6645,1.6668,1.6668,1.667,1.6673,1.6657,1.6679,1.6676,1.6705,1.6719,1.6722,1.6728,1.6711,1.6773,1.6779,1.6785,1.6804,1.6812,1.6718,1.6717,1.6717,1.6717,0,1.6711,1.6725,1.6744,1.6747,1.6753,1.6773,1.6758,1.6766,1.6753,1.6745,1.6768,1.6764,1.6771,1.6777,1.6764,1.6805,1.6796,1.6777,1.6747,1.6796,1.6814,1.6822,1.6722,1.6721,1.672,1.6719,0,0,1.6793,1.6785,1.6793,1.6794,1.679,1.6801,1.6821,1.6828,1.6836,1.6838,1.6854,1.687,1.6852,1.6855,1.6842,1.6858,1.6904,1.6837,1.6836,1.685,1.695,1.6966,1.6975,1.6892,1.6893,1.6894,1.6951,0,1.6847,1.688,1.6864,1.6899,1.6913,1.6886,1.6903,1.6903,1.6897,1.6907,1.6899,1.6911,1.6886,1.6888,1.6903,1.6896,1.6924,1.6891,1.6907,1.6908,1.6909,1.6984,1.7,1.7053,1.6958,1.6959,1.696,0,1.6915,1.692,1.6957,1.6952,1.6957,1.6972,1.6978,1.6989,1.6988,1.6982,1.6986,1.6969,1.6988,1.6959,1.6985,1.6963,1.6969,1.6967,1.6968,1.697,1.6937,1.6988,1.707,1.7078,1.697,1.697,1.6969,0,1.6972,1.6988,1.7012,1.7014,1.7009,1.702,1.7019,1.7017,1.7023,1.7028,1.7032,1.7039,1.7043,1.7049,1.7035,1.7015,1.7064,1.7033,1.706,1.706,1.7072,1.7071,1.7156,1.7074,1.7074,1.7074,1.7074,0,1.7034,1.7058,1.7038,1.7053,1.7079,1.7061,1.7087,1.7082,1.7081,1.7095,1.7072,1.7086,1.7066,1.7077,1.7066,1.709,1.7092,1.7088,1.7085,1.7091,1.7091,1.7094,1.7091,1.7076,1.7076,1.7075,1.7075,0,1.7103,1.709,1.7115,1.7108,1.7107,1.7127,1.7121,1.7134,1.7126,1.7144,1.7147,1.7134,1.7147,1.7133,1.7145,1.7137,1.717,1.7161,1.717,1.7168,1.7196,1.7194,1.7286,1.7298,1.7208,1.7209,1.721,0,1.7144,1.7162,1.7157,1.7165,1.7165,1.7177,1.7183,1.7166,1.7173,1.7174,1.7188,1.7199,1.7206,1.7228,1.722,1.7229,1.722,1.7252,1.7221,1.7227,1.7222,1.7221,1.7223,1.7258,1.726,1.726,1.7261,0,1.7219,1.7212,1.7221,1.7229,1.7237,1.7242,1.7246,1.7253,1.7235,1.7245,1.7257,1.7263,1.7275,1.7287,1.7293,1.7291,1.7274,1.7271,1.7278,1.7284,1.7289,1.7287,1.7188,1.7269,1.7268,1.7268,1.7267,1.7267,1.7275,1.729,1.7289,1.7301,1.7302,1.7306,1.7319,1.7312,1.7323,1.7331,1.732,1.7336,1.7336,1.7343,1.7343,1.7356,1.7342,1.7352,1.7355,1.7357,1.7362,1.7286,1.7357,1.7357,1.7356,1.7356,1.7356,0,1.735,1.7348,1.7359,1.7365,1.7374,1.7356,1.7359,1.7368,1.7383,1.7384,1.7392,1.7407,1.7418,1.7411,1.7421,1.7432,1.7424,1.7435,1.7434,1.7435,1.7373,1.7367,1.7441,1.7441,1.7441,1.7441,1.7441,1.7441,1.739,1.7414,1.7407,1.7432,1.743,1.7446,1.7449,1.7453,1.7454,1.7472,1.7481,1.7476,1.7474,1.7483,1.7493,1.749,1.7495,1.7509,1.7504,1.7447,1.7439,1.7431,1.7425,1.751,1.751,1.7565,1.7565,1.7566]},{"header":{"parameterUnit":"m.s-1","parameterCategory":1,"la1":30.2991,"la2":30.254,"lo1":-89.0895,"lo2":-89.0444,"dy":0.0017,"dx":0.0017,"nx":28,"ny":28,"refTime":"2024-04-12T09:00:00:Z","depth":0,"parameterNumber":3,"parameterNumberName":"V-component_of_WINDS"},"data":[0,0,0,0,0,0,0,0,0,0,0,0,0,0,0,0,0,0,0,0,0,0,0,0,0,0,0,0,0,0,0,0,0,0,0,0,0,0,0,0,0,0,0,0,0,0,0,0,0,0,0,0,0,0,0,0,0,0,-1.6006,-1.6007,0,-1.6054,-1.6055,-1.6055,-1.606,-1.606,-1.6059,-1.6059,-1.6107,-1.6108,-1.611,0,0,0,0,0,0,0,0,0,0,0,0,0,-1.5917,-1.5919,-1.6006,-1.6007,-1.6007,-1.6054,-1.6055,-1.6055,-1.606,-1.606,-1.6059,-1.6058,-1.6106,-1.6108,-1.611,0,0,0,0,0,0,0,0,0,0,0,0,0,-1.5959,-1.5919,-1.6006,-1.6015,-1.6017,-1.6054,-1.6055,-1.6056,-1.606,-1.606,-1.6059,-1.6058,-1.6105,-1.6108,-1.6111,-1.6141,0,0,-1.6118,-1.612,0,0,0,0,0,0,0,0,-1.5957,-1.5963,-1.6013,-1.6015,-1.6016,-1.605,-1.6041,-1.6084,-1.606,-1.6044,-1.6059,-1.6058,-1.6088,-1.6092,-1.6103,-1.6144,-1.6146,-1.6119,-1.612,-1.6121,-1.6122,0,0,0,0,0,0,0,-1.5954,-1.5961,-1.6025,-1.6014,-1.6016,-1.6017,-1.6022,-1.6049,-1.607,-1.6045,-1.6046,-1.6051,-1.6089,-1.61,-1.6104,-1.6146,-1.6119,-1.6121,-1.6123,-1.6124,-1.6215,-1.6215,0,0,0,0,0,0,-1.595,-1.5958,-1.6024,-1.6026,-1.5984,-1.6019,-1.6025,-1.604,-1.6069,-1.6073,-1.6052,-1.6051,-1.6096,-1.6101,-1.6106,-1.6144,-1.6121,-1.6124,-1.6125,-1.6214,-1.6215,-1.6216,0,0,0,0,0,0,-1.5948,-1.5955,-1.6022,-1.5993,-1.6001,-1.6021,-1.6039,-1.6042,-1.6053,-1.6074,-1.6078,-1.606,-1.6096,-1.6102,-1.6133,-1.6145,-1.6125,-1.6127,-1.6213,-1.6214,-1.6215,-1.622,0,0,0,0,0,0,-1.5945,-1.5955,-1.5967,-1.5993,-1.6003,-1.6048,-1.6039,-1.6043,-1.6058,-1.6057,-1.6083,-1.6086,-1.6096,-1.6129,-1.6135,-1.6149,-1.6129,-1.6212,-1.6213,-1.6215,-1.6218,-1.6221,-1.6223,0,0,0,0,0,-1.5942,-1.5966,-1.5967,-1.5975,-1.6018,-1.6049,-1.6054,-1.6065,-1.6059,-1.6071,-1.6085,-1.6086,-1.6143,-1.6132,-1.6139,-1.6153,-1.6211,-1.6213,-1.6215,-1.6217,-1.622,-1.6223,0,0,0,0,0,0,-1.5941,-1.597,-1.5971,-1.6005,-1.6024,-1.6049,-1.6065,-1.6068,-1.6089,-1.6088,-1.61,-1.6106,-1.6136,-1.6148,-1.6135,-1.6185,-1.6176,-1.618,-1.6176,-1.6179,-1.6181,-1.6177,-1.6132,0,0,0,0,0,-1.5944,-1.5967,-1.5991,-1.6018,-1.6028,-1.6045,-1.6058,-1.6065,-1.6085,-1.6094,-1.611,-1.6129,-1.6151,-1.6166,-1.6188,-1.622,-1.6226,-1.6234,-1.6236,-1.6238,-1.6241,-1.6258,-1.6262,-1.6222,-1.6222,-1.6222,0,0,-1.5952,-1.5971,-1.5984,-1.6018,-1.6034,-1.6057,-1.6052,-1.6076,-1.6092,-1.6097,-1.6127,-1.6139,-1.6162,-1.6193,-1.6208,-1.6204,-1.6253,-1.624,-1.6242,-1.6243,-1.6261,-1.6264,-1.6268,-1.6223,-1.6223,-1.6223,0,0,-1.5977,-1.5994,-1.6018,-1.6034,-1.6059,-1.607,-1.6076,-1.61,-1.6109,-1.6139,-1.6143,-1.6163,-1.6201,-1.6217,-1.623,-1.6262,-1.6263,-1.6268,-1.628,-1.6297,-1.63,-1.6303,-1.6314,-1.6318,-1.6271,-1.6271,-1.6271,0,-1.5984,-1.6018,-1.603,-1.6054,-1.6069,-1.6075,-1.6099,-1.6114,-1.6144,-1.6154,-1.6149,-1.6198,-1.6213,-1.6248,-1.6256,-1.6266,-1.6273,-1.6265,-1.6299,-1.6302,-1.6305,-1.6315,-1.6319,-1.6272,-1.6272,-1.6271,-1.6271,0,-1.6025,-1.6049,-1.6065,-1.6094,-1.6111,-1.6135,-1.615,-1.6165,-1.6171,-1.6182,-1.6212,-1.6232,-1.6257,-1.6266,-1.6271,-1.6302,-1.6299,-1.6297,-1.6288,-1.6309,-1.6319,-1.6323,-1.6272,-1.6272,-1.6272,-1.6272,0,0,-1.605,-1.6086,-1.6091,-1.6105,-1.6132,-1.615,-1.6175,-1.62,-1.6213,-1.6233,-1.6253,-1.6286,-1.6284,-1.6299,-1.6306,-1.6321,-1.6344,-1.6317,-1.6318,-1.6321,-1.6378,-1.6379,-1.6384,-1.6346,-1.6347,-1.6347,-1.6376,0,-1.6078,-1.6122,-1.6133,-1.617,-1.6192,-1.6198,-1.6219,-1.6238,-1.6249,-1.6269,-1.6282,-1.6304,-1.63,-1.6309,-1.6325,-1.6338,-1.6356,-1.6336,-1.6364,-1.6365,-1.6357,-1.6389,-1.639,-1.6417,-1.638,-1.6381,-1.6381,0,-1.6117,-1.6138,-1.6177,-1.6201,-1.6211,-1.623,-1.6254,-1.6273,-1.6294,-1.6302,-1.6318,-1.6324,-1.6349,-1.634,-1.6374,-1.6361,-1.6373,-1.6381,-1.6382,-1.6385,-1.6374,-1.6392,-1.6425,-1.6429,-1.6388,-1.6387,-1.6387,0,-1.613,-1.6169,-1.6198,-1.6209,-1.6238,-1.6251,-1.6264,-1.6284,-1.6299,-1.632,-1.6329,-1.6353,-1.6365,-1.6383,-1.6395,-1.6387,-1.6428,-1.642,-1.6434,-1.6434,-1.6442,-1.6441,-1.6478,-1.6451,-1.6451,-1.6451,-1.6451,0,-1.616,-1.6184,-1.6204,-1.6222,-1.6248,-1.6261,-1.6287,-1.6299,-1.6318,-1.6337,-1.6344,-1.6362,-1.6377,-1.6397,-1.6406,-1.6433,-1.6439,-1.6445,-1.6447,-1.6444,-1.6443,-1.6451,-1.645,-1.6452,-1.6452,-1.6451,-1.6451,0,-1.618,-1.6195,-1.6226,-1.6251,-1.6258,-1.6276,-1.6298,-1.6314,-1.6326,-1.6351,-1.6357,-1.6376,-1.64,-1.6414,-1.6444,-1.645,-1.6479,-1.6481,-1.6472,-1.6473,-1.6486,-1.6485,-1.6529,-1.6535,-1.6505,-1.6505,-1.6505,0,-1.6198,-1.6216,-1.6243,-1.6257,-1.627,-1.6292,-1.6307,-1.632,-1.6335,-1.6361,-1.6374,-1.6399,-1.6419,-1.6457,-1.6473,-1.6496,-1.6498,-1.6511,-1.6501,-1.6497,-1.6497,-1.6496,-1.6497,-1.6513,-1.6513,-1.6513,-1.6514,0,-1.6227,-1.6234,-1.6255,-1.6279,-1.6297,-1.6317,-1.6336,-1.6347,-1.6363,-1.638,-1.6405,-1.642,-1.6451,-1.6475,-1.6499,-1.6512,-1.6515,-1.6517,-1.6521,-1.6518,-1.6512,-1.6515,-1.6476,-1.6516,-1.6515,-1.6515,-1.6515,-1.6515,-1.6246,-1.6263,-1.6284,-1.6308,-1.6324,-1.6342,-1.6359,-1.6373,-1.6394,-1.642,-1.6427,-1.6453,-1.6473,-1.6506,-1.6519,-1.6539,-1.6537,-1.6544,-1.6545,-1.6546,-1.6546,-1.6509,-1.6544,-1.6544,-1.6544,-1.6544,-1.6544,0,-1.6276,-1.629,-1.6312,-1.6339,-1.6357,-1.6359,-1.6381,-1.6396,-1.6419,-1.6438,-1.6458,-1.6486,-1.6509,-1.6527,-1.6551,-1.6563,-1.6565,-1.6569,-1.6568,-1.6571,-1.6548,-1.6541,-1.6567,-1.6567,-1.6567,-1.6567,-1.6567,-1.6567,-1.6293,-1.6321,-1.633,-1.6365,-1.6379,-1.6405,-1.6417,-1.6433,-1.6449,-1.648,-1.65,-1.6511,-1.653,-1.6555,-1.6576,-1.6581,-1.6589,-1.6592,-1.6597,-1.6575,-1.6572,-1.657,-1.6564,-1.6594,-1.6594,-1.6618,-1.6618,-1.6618]}]]